User: anonymous   Login
Location: Batang Balui
(2.7000°N, 113.7833°E)
Time: 21:54:57
(UTC+00:00)
Language:

XW-2B - Orbit

View from above orbital plane
View from above orbital plane
View from above satellite
View from above satellite

Ground track
Ground track

The orbit data is extracted from the following two-line orbital elements,

1 40911U 15049N   23090.53703193  .00020462  00000-0  80379-3 0  9993
2 40911  97.4934  98.3473 0013561  73.8183  24.6283 15.25641772416515
Epoch (UTC): 31 March 2023 12:53:19
Eccentricity: 0.0013561
inclination: 97.4934°
perigee height: 479 km
apogee height: 498 km
right ascension of ascending node: 98.3473°
argument of perigee: 73.8183°
revolutions per day: 15.25641772
mean anomaly at epoch: 24.6283°
orbit number at epoch: 41651

The dashed part of the orbit path shows where the satellite is in the earth's shadow,  

DLR